Time,TemperatureF,DewpointF,PressureIn,WindDirection,WindDirectionDegrees,WindSpeedMPH,WindSpeedGustMPH,Humidity,HourlyPrecipIn,Conditions,Clouds,dailyrainin,SoftwareType,DateUTC
2013-04-21 00:00:00,34.1,12.8,30.32,ESE,114,4.0,6.0,41,0.00,,,0.00,Wunderground v.1.15,2013-04-21 05:00:00,
2013-04-21 00:30:00,34.3,14.1,30.33,ESE,115,4.0,4.0,43,0.00,,,0.00,Wunderground v.1.15,2013-04-21 05:30:00,
2013-04-21 01:00:00,34.1,14.4,30.34,SE,128,5.0,5.0,44,0.00,,,0.00,Wunderground v.1.15,2013-04-21 06:00:00,
2013-04-21 01:30:00,34.1,14.9,30.34,ESE,118,4.0,4.0,45,0.00,,,0.00,Wunderground v.1.15,2013-04-21 06:30:00,
2013-04-21 01:59:00,34.3,15.1,30.34,SE,126,4.0,4.0,45,0.00,,,0.00,Wunderground v.1.15,2013-04-21 06:59:00,
2013-04-21 02:30:00,34.7,14.5,30.33,ESE,113,5.0,5.0,43,0.00,,,0.00,Wunderground v.1.15,2013-04-21 07:30:00,
2013-04-21 03:00:00,34.9,14.6,30.33,ESE,119,3.0,6.0,43,0.00,,,0.00,Wunderground v.1.15,2013-04-21 08:00:00,
2013-04-21 03:30:00,34.7,15.0,30.33,SE,142,3.0,3.0,44,0.00,,,0.00,Wunderground v.1.15,2013-04-21 08:30:00,
2013-04-21 04:00:00,34.7,16.0,30.32,SE,125,4.0,4.0,46,0.00,,,0.00,Wunderground v.1.15,2013-04-21 09:00:00,
2013-04-21 04:30:00,34.7,16.5,30.34,SE,138,2.0,2.0,47,0.00,,,0.00,Wunderground v.1.15,2013-04-21 09:30:00,
2013-04-21 04:59:00,35.2,23.1,30.35,South,171,5.0,5.0,61,0.00,,,0.00,Wunderground v.1.15,2013-04-21 09:59:00,
2013-04-21 05:29:00,32.4,28.4,30.35,SE,134,2.0,4.0,85,0.00,,,0.00,Wunderground v.1.15,2013-04-21 10:29:00,
2013-04-21 05:59:00,31.5,29.4,30.36,SE,142,3.0,6.0,92,0.00,,,0.00,Wunderground v.1.15,2013-04-21 10:59:00,
2013-04-21 06:29:00,31.3,30.3,30.35,SE,140,4.0,6.0,96,0.00,,,0.00,Wunderground v.1.15,2013-04-21 11:29:00,
2013-04-21 06:59:00,31.9,30.9,30.36,SE,146,4.0,4.0,96,0.00,,,0.00,Wunderground v.1.15,2013-04-21 11:59:00,
2013-04-21 07:29:00,32.7,31.7,30.36,ESE,117,6.0,6.0,96,0.00,,,0.00,Wunderground v.1.15,2013-04-21 12:29:00,
2013-04-21 07:59:00,33.2,32.2,30.35,ESE,118,6.0,6.0,96,0.00,,,0.00,Wunderground v.1.15,2013-04-21 12:59:00,
2013-04-21 08:29:00,33.7,32.7,30.35,ESE,123,7.0,7.0,96,0.00,,,0.00,Wunderground v.1.15,2013-04-21 13:29:00,
2013-04-21 08:59:00,34.1,32.0,30.34,SE,128,9.0,9.0,92,0.00,,,0.00,Wunderground v.1.15,2013-04-21 13:59:00,
2013-04-21 09:29:00,34.4,31.2,30.33,SSE,154,7.0,7.0,88,0.00,,,0.00,Wunderground v.1.15,2013-04-21 14:29:00,
2013-04-21 09:59:00,34.7,31.2,30.32,SE,146,6.0,6.0,87,0.00,,,0.00,Wunderground v.1.15,2013-04-21 14:59:00,
2013-04-21 10:29:00,34.7,31.5,30.32,SE,142,8.0,8.0,88,0.00,,,0.00,Wunderground v.1.15,2013-04-21 15:29:00,
2013-04-21 10:59:00,33.8,32.0,30.31,ESE,104,7.0,9.0,93,0.00,,,0.00,Wunderground v.1.15,2013-04-21 15:59:00,
2013-04-21 11:29:00,33.7,32.7,30.30,SE,136,7.0,7.0,96,0.00,,,0.00,Wunderground v.1.15,2013-04-21 16:29:00,
2013-04-21 12:00:00,34.3,33.3,30.28,East,98,8.0,8.0,96,0.00,,,0.01,Wunderground v.1.15,2013-04-21 17:00:00,
2013-04-21 12:30:00,35.2,33.1,30.27,SE,138,7.0,9.0,92,0.00,,,0.01,Wunderground v.1.15,2013-04-21 17:30:00,
2013-04-21 12:59:00,36.5,33.3,30.25,SE,137,9.0,9.0,88,0.00,,,0.01,Wunderground v.1.15,2013-04-21 17:59:00,
2013-04-21 13:29:00,37.3,32.6,30.24,East,91,9.0,9.0,83,0.00,,,0.01,Wunderground v.1.15,2013-04-21 18:29:00,
2013-04-21 14:00:00,37.9,32.6,30.22,ESE,119,10.0,11.0,81,0.00,,,0.01,Wunderground v.1.15,2013-04-21 19:00:00,
2013-04-21 14:30:00,39.6,33.3,30.20,SE,124,9.0,17.0,78,0.00,,,0.01,Wunderground v.1.15,2013-04-21 19:30:00,
2013-04-21 15:00:00,40.9,33.6,30.19,SE,144,8.0,8.0,75,0.00,,,0.01,Wunderground v.1.15,2013-04-21 20:00:00,
2013-04-21 15:29:00,43.2,33.3,30.17,SE,144,9.0,16.0,68,0.00,,,0.01,Wunderground v.1.15,2013-04-21 20:29:00,
2013-04-21 15:59:00,44.2,33.2,30.16,ESE,121,9.0,15.0,65,0.00,,,0.01,Wunderground v.1.15,2013-04-21 20:59:00,
2013-04-21 16:29:00,43.8,33.2,30.14,SE,133,12.0,12.0,66,0.00,,,0.01,Wunderground v.1.15,2013-04-21 21:29:00,
2013-04-21 16:59:00,44.3,34.0,30.13,SSE,152,8.0,8.0,67,0.00,,,0.01,Wunderground v.1.15,2013-04-21 21:59:00,
2013-04-21 17:29:00,45.5,34.8,30.13,SE,132,5.0,5.0,66,0.00,,,0.01,Wunderground v.1.15,2013-04-21 22:29:00,
2013-04-21 17:59:00,46.4,34.9,30.11,ESE,107,3.0,4.0,64,0.00,,,0.01,Wunderground v.1.15,2013-04-21 22:59:00,
2013-04-21 18:29:00,46.5,35.4,30.10,ESE,110,4.0,4.0,65,0.00,,,0.01,Wunderground v.1.15,2013-04-21 23:29:00,
2013-04-21 18:59:00,45.8,35.5,30.09,ESE,111,4.0,4.0,67,0.00,,,0.01,Wunderground v.1.15,2013-04-21 23:59:00,
2013-04-21 19:29:00,45.7,36.8,30.09,ESE,121,3.0,3.0,71,0.00,,,0.01,Wunderground v.1.15,2013-04-22 00:29:00,
2013-04-21 20:00:00,43.9,39.1,30.09,ESE,109,0.0,2.0,83,0.00,,,0.02,Wunderground v.1.15,2013-04-22 01:00:00,
2013-04-21 20:30:00,42.6,39.3,30.11,ESE,105,0.0,1.0,88,0.00,,,0.03,Wunderground v.1.15,2013-04-22 01:30:00,
2013-04-21 21:00:00,42.5,40.3,30.12,ESE,105,3.0,3.0,92,0.00,,,0.05,Wunderground v.1.15,2013-04-22 02:00:00,
2013-04-21 21:30:00,42.6,41.0,30.12,ESE,111,3.0,3.0,94,0.04,,,0.06,Wunderground v.1.15,2013-04-22 02:30:00,
2013-04-21 21:59:00,43.3,42.2,30.12,SE,129,4.0,4.0,96,0.05,,,0.08,Wunderground v.1.15,2013-04-22 02:59:00,
2013-04-21 22:29:00,44.1,43.0,30.11,SSE,158,6.0,6.0,96,0.05,,,0.10,Wunderground v.1.15,2013-04-22 03:29:00,
2013-04-21 22:59:00,44.9,43.8,30.10,SSE,147,7.0,7.0,96,0.00,,,0.12,Wunderground v.1.15,2013-04-22 03:59:00,
2013-04-21 23:30:00,45.5,44.4,30.10,SSE,150,6.0,6.0,96,0.00,,,0.13,Wunderground v.1.15,2013-04-22 04:30:00,